Weather History for KBTL - November, 2012

Change the Weather History Date:

Saturday, November 10, 2012

  Actual Average Record
Temperature  
Mean Temperature 58 °F 42 °F  
Max Temperature 65 °F 51 °F 66 °F (1999)
Min Temperature 51 °F 33 °F 25 °F (2003)
Degree Days  
Heating Degree Days 7 23  
Month to date heating degree days 263 216  
Since 1 July heating degree days 891 878  
Cooling Degree Days 0 0  
Month to date cooling degree days 0 0  
Year to date cooling degree days 1008 578  
Growing Degree Days 8 (Base 50)    
Moisture  
Dew Point 44 °F    
Average Humidity 60    
Maximum Humidity 71    
Minimum Humidity 48    
Precipitation  
Precipitation T in 0.09 in 0.88 in (1998)
Month to date precipitation T 0.98  
Year to date precipitation 22.28 29.31  
Sea Level Pressure  
Sea Level Pressure 30.04 in    
Wind  
Wind Speed 12 mph (SSE)    
Max Wind Speed 26 mph    
Max Gust Speed 33 mph    
Visibility 10 miles    
Events      
T = Trace of Precipitation, MM = Missing Value Source: NWS Daily Summary

Daily Weather History Graph

Daily Weather History Graph

Search for Another Location

Airport or City:

Trip Planner

Search our weather history database for the weather conditions in past years. The results will help you decide how hot, cold, wet, or windy it might be!

Date:

Astronomy

Nov. 10, 2012 Rise Set
Actual Time 7:26 AM EST 5:23 PM EST
Civil Twilight 6:56 AM EST 5:53 PM EST
Nautical Twilight 6:22 AM EST 6:26 PM EST
Astronomical Twilight 5:49 AM EST 6:59 PM EST
Moon 3:26 AM EST (11/10) 3:13 PM EST (11/10)
Length of Visible Light 10h 57m
Length of Day
9h 57m
Waning Crescent, 14% of the Moon is Illuminated
Nov 10
Waning Crescent
Nov 13
New
Nov 20
First Quarter
Nov 28
Full
Dec 6
Last Quarter

Hourly Weather History & Observations

Time (EST) Temp. Dew Point Humidity Pressure Visibility Wind Dir Wind Speed Gust Speed Precip Events Conditions
12:53 AM 52.0 °F 42.1 °F 69% 30.08 in 10.0 mi ESE 5.8 mph - N/A   Overcast
1:53 AM 51.1 °F 42.1 °F 71% 30.08 in 10.0 mi ESE 4.6 mph - N/A   Overcast
2:53 AM 51.1 °F 42.1 °F 71% 30.09 in 9.0 mi SE 3.5 mph - N/A   Overcast
3:53 AM 51.1 °F 42.1 °F 71% 30.08 in 9.0 mi SE 5.8 mph - N/A   Overcast
4:53 AM 51.1 °F 41.0 °F 68% 30.08 in 9.0 mi SE 9.2 mph - N/A   Overcast
5:53 AM 51.1 °F 41.0 °F 68% 30.08 in 10.0 mi SSE 9.2 mph - N/A   Overcast
6:53 AM 51.1 °F 41.0 °F 68% 30.08 in 10.0 mi SE 6.9 mph - N/A   Overcast
7:43 AM 51.8 °F 41.0 °F 67% 30.07 in 10.0 mi SSE 5.8 mph - N/A   Overcast
7:53 AM 51.1 °F 42.1 °F 71% 30.09 in 9.0 mi SE 5.8 mph - N/A   Overcast
8:53 AM 53.1 °F 42.1 °F 66% 30.10 in 10.0 mi South 8.1 mph - N/A   Overcast
9:53 AM 54.0 °F 43.0 °F 66% 30.09 in 10.0 mi South 10.4 mph - N/A   Overcast
10:13 AM 55.4 °F 42.8 °F 63% 30.07 in 10.0 mi South 8.1 mph - N/A   Overcast
10:53 AM 57.0 °F 44.1 °F 62% 30.05 in 10.0 mi South 6.9 mph - N/A   Partly Cloudy
11:53 AM 60.1 °F 45.0 °F 57% 30.05 in 10.0 mi SSW 13.8 mph - N/A   Clear
12:53 PM 61.0 °F 45.0 °F 56% 30.03 in 10.0 mi South 12.7 mph - N/A   Overcast
1:53 PM 64.0 °F 46.0 °F 52% 30.00 in 10.0 mi South 11.5 mph - N/A   Scattered Clouds
2:53 PM 63.0 °F 46.0 °F 54% 29.99 in 10.0 mi South 11.5 mph - N/A   Clear
3:53 PM 62.1 °F 46.0 °F 56% 29.99 in 10.0 mi South 13.8 mph - N/A   Mostly Cloudy
4:53 PM 63.0 °F 46.9 °F 56% 29.94 in 10.0 mi South 26.5 mph 33.4 mph N/A   Scattered Clouds
5:53 PM 63.0 °F 48.0 °F 58% 29.92 in 10.0 mi South 19.6 mph 27.6 mph 0.00 in   Scattered Clouds
6:53 PM 64.0 °F 48.0 °F 56% 29.97 in 10.0 mi SSW 15.0 mph 21.9 mph N/A   Clear
7:53 PM 63.0 °F 46.9 °F 56% 29.99 in 10.0 mi SSW 13.8 mph - N/A   Clear
8:53 PM 64.0 °F 45.0 °F 50% 30.01 in 10.0 mi SSW 19.6 mph 27.6 mph N/A   Mostly Cloudy
9:53 PM 63.0 °F 45.0 °F 52% 30.01 in 10.0 mi SSW 18.4 mph 26.5 mph N/A   Clear
10:53 PM 60.8 °F 44.6 °F 55% 30.01 in 10.0 mi SSW 18.4 mph - N/A   Clear
11:53 PM 59.0 °F 45.0 °F 60% 30.01 in 10.0 mi SSW 17.3 mph 26.5 mph N/A   Clear